Wind_Speed
82 81 81 76 74 73 72 72 71 70 69 67 66 64 64 62 59 54 52 46 46 47 48 42 38 32 28 26 27 26 22 19 11 11 15 32 33 31 28 27 25 22 22
77 78 75 73 71 70 69 66 62 61 62 61 60 58 58 54 49 51 46 43 47 48 41 38 34 26 26 25 25 26 20 14 11 11 16 30 31 32 30 29 26 21 19
53 59 63 66 67 65 64 62 59 55 55 56 52 53 50 49 49 47 43 45 47 41 36 34 27 24 24 23 24 22 17 14 11 15 19 28 27 28 29 26 26 17 14
35 38 44 52 56 56 55 55 53 51 48 48 49 47 48 49 44 40 44 45 40 32 31 27 24 26 26 25 25 21 21 16 12 15 22 26 28 28 28 27 24 19 18
20 27 34 39 43 45 46 42 42 46 47 47 45 48 46 41 37 40 41 35 29 20 21 25 27 26 26 26 21 22 17 16 13 15 25 23 27 28 30 28 23 23 18
15 17 23 28 34 36 39 42 43 45 46 45 47 42 38 34 37 38 31 19 19 22 21 19 17 17 18 20 22 18 16 16 15 15 22 24 27 30 29 23 22 18 16
11 16 16 23 26 28 34 39 40 44 45 42 37 34 32 34 33 26 17 15 16 18 17 16 17 17 15 16 17 18 17 15 15 19 17 22 22 23 27 26 23 21 14
20 18 18 20 26 29 32 36 39 39 35 32 30 27 30 29 19 14 9 12 15 15 14 15 16 15 16 17 17 18 14 16 13 17 19 18 22 20 26 28 25 18 15
24 30 19 20 23 24 26 27 27 28 26 26 24 25 24 17 9 2 5 10 12 11 11 11 10 11 14 15 17 18 17 17 15 15 18 19 17 17 17 22 22 20 20
32 24 16 20 19 19 20 23 23 23 23 24 23 22 20 11 9 5 8 15 17 12 13 16 8 6 9 12 16 19 20 21 17 17 14 15 16 13 14 18 19 20 21
30 17 16 17 17 18 20 20 22 23 22 23 20 21 15 17 9 6 7 12 19 17 19 17 10 4 5 10 15 20 20 19 15 16 16 16 13 12 12 15 19 17 18
24 19 19 17 18 19 19 22 20 21 21 20 20 20 17 17 10 8 6 8 17 20 21 19 20 18 14 12 14 16 16 16 16 17 14 13 16 18 20 19 19 22 24
26 18 17 17 17 17 19 18 18 18 18 19 21 20 23 16 13 8 6 7 12 20 23 26 22 26 28 25 27 25 20 17 15 12 14 18 16 19 21 22 21 21 22
22 19 15 15 15 15 14 14 16 17 18 18 22 23 27 18 16 8 5 5 8 12 19 23 25 27 27 28 28 26 22 18 15 15 16 18 21 24 26 27 24 19 13
17 14 15 14 11 9 13 15 18 18 16 14 20 23 23 20 17 11 8 6 8 8 13 17 21 23 25 25 24 23 21 20 20 17 18 24 21 20 18 18 16 17 17
16 18 14 10 7 9 14 14 17 18 13 15 20 20 22 17 20 14 9 5 5 5 12 14 16 18 20 20 20 19 19 19 19 18 17 14 12 12 13 12 12 12 11
15 13 8 7 7 10 15 19 18 16 12 14 18 20 22 20 18 17 10 9 4 6 9 8 8 10 12 11 11 10 10 10 9 8 7 6 5 5 6 9 11 12 12
12 9 6 6 7 10 14 19 20 18 15 13 16 22 21 25 20 12 13 12 9 10 6 7 7 6 3 1 3 0 3 2 4 4 4 5 6 8 9 11 13 14 16
9 5 4 3 5 8 12 17 23 21 18 15 14 18 22 19 25 24 16 16 13 12 12 10 9 8 8 9 10 5 7 9 14 17 14 14 14 15 14 14 13 14 18
12 8 4 2 1 3 7 11 17 21 22 19 16 15 18 21 22 26 21 22 21 20 16 15 11 10 10 10 11 14 17 15 13 17 21 21 22 20 19 20 22 24 21
12 9 6 4 2 2 3 7 11 15 15 16 16 15 15 16 19 25 29 28 27 24 22 18 21 19 18 17 18 17 19 19 20 18 14 13 14 17 18 20 21 20 22
16 11 9 5 3 3 3 3 8 12 14 14 15 14 18 16 15 18 20 26 29 27 27 26 24 26 26 24 23 24 22 18 14 12 12 14 16 18 21 23 26 29 31
20 14 12 6 5 3 6 8 5 2 9 13 12 10 12 14 10 12 14 16 17 19 22 25 27 23 21 24 20 15 16 17 19 18 18 21 23 25 29 32 33 35 35
19 18 13 9 5 4 7 11 11 10 8 4 6 8 9 15 15 12 12 13 15 19 20 19 19 20 20 20 20 18 19 22 24 26 28 29 31 37 35 31 30 31 33
23 22 19 15 10 7 6 8 10 11 9 9 8 4 1 2 6 10 12 15 17 20 24 26 28 27 28 27 26 30 30 31 32 33 34 35 32 28 26 25 25 25 26
26 23 20 18 15 12 10 9 9 6 2 2 1 1 4 3 3 3 2 1 3 5 7 8 9 10 13 15 16 17 18 18 19 19 19 19 19 20 20 20 22 24 27
Wind_Direction
251 253 254 257 258 261 264 266 269 273 277 279 283 285 288 289 291 294 300 296 294 298 298 293 292 286 285 287 296 308 306 302 301 268 240 197 200 208 218 228 236 237 235
253 254 255 255 256 258 261 265 270 273 277 279 280 284 284 288 293 295 294 291 295 294 290 288 282 279 278 284 297 300 289 290 282 259 232 198 200 210 222 227 234 229 226
251 252 253 254 255 257 260 263 268 274 277 277 280 281 284 290 294 293 291 294 294 291 285 279 278 270 276 291 293 295 282 275 262 254 214 197 200 211 221 229 234 234 258
248 252 250 249 251 254 257 259 262 270 270 277 278 279 287 291 293 291 294 294 293 286 283 280 280 282 282 285 294 292 290 253 250 235 212 207 208 214 222 231 244 252 260
243 248 247 247 247 246 247 251 256 265 273 271 277 285 287 289 287 293 295 292 290 287 280 276 277 281 278 279 274 285 270 237 238 224 216 218 214 211 228 232 240 239 251
237 260 247 239 243 243 248 253 258 265 266 272 282 282 285 286 293 296 290 284 280 274 277 282 286 291 281 268 267 270 243 230 231 214 221 226 225 226 228 229 230 239 252
261 247 242 249 241 236 240 249 256 261 267 275 276 280 282 290 294 287 277 276 286 297 297 283 286 289 278 276 267 247 231 225 238 202 206 219 224 221 227 232 248 259 257
266 288 277 239 233 242 246 252 260 264 266 270 273 278 285 289 280 272 285 306 316 309 303 295 289 281 266 266 261 235 215 208 224 208 205 217 222 230 235 240 248 257 229
265 279 271 256 253 257 257 257 258 261 266 267 272 277 279 265 250 209 356 355 351 342 332 317 296 279 260 246 234 217 201 195 206 209 219 219 216 229 226 227 236 243 205
267 270 274 271 261 254 251 252 255 261 262 267 270 270 254 240 166 105 51 30 17 10 354 346 338 287 257 219 200 197 191 199 215 211 204 215 219 208 219 225 222 197 193
263 269 281 261 252 243 247 256 260 262 264 267 263 245 235 172 159 125 63 37 30 29 20 21 28 44 144 174 177 183 187 194 208 200 209 190 188 185 182 176 171 182 180
260 269 271 247 244 241 253 257 262 265 262 254 235 222 194 172 162 143 87 50 43 42 38 39 56 73 98 125 151 154 154 155 159 168 170 159 156 155 154 156 149 144 157
248 259 240 241 240 248 258 260 260 252 240 224 215 203 180 177 163 158 126 67 55 57 55 57 65 75 82 95 106 107 108 111 114 121 135 141 148 146 144 145 148 148 153
249 237 233 219 243 254 264 261 243 220 211 205 200 188 182 179 166 162 141 107 78 66 64 64 74 82 88 91 94 95 98 99 102 117 129 139 136 135 137 148 151 162 165
229 216 205 228 245 265 262 248 217 204 192 179 179 181 185 189 180 171 149 107 110 89 84 83 82 87 92 95 94 95 99 97 97 114 130 136 134 136 143 154 164 170 175
203 202 218 223 260 264 252 244 219 209 182 159 184 186 183 195 186 186 183 144 133 121 124 108 100 94 96 95 94 96 102 107 110 111 112 116 130 139 145 151 161 179 192
203 206 217 231 259 249 246 239 228 227 200 164 182 185 184 184 203 206 214 192 152 160 160 140 138 115 109 107 91 96 90 104 104 105 126 132 141 161 192 213 219 225 231
201 209 220 235 250 242 238 239 237 227 211 198 190 198 197 198 194 211 213 210 200 188 203 215 190 187 212 148 59 36 218 227 308 297 275 245 249 253 251 251 250 250 249
183 181 194 198 241 237 224 228 233 228 222 211 201 204 204 203 211 216 214 205 208 216 228 234 234 243 249 269 282 283 297 284 278 281 284 283 273 274 278 273 256 269 273
189 180 203 189 231 233 223 221 220 224 227 228 222 217 210 208 210 223 231 222 223 233 237 238 233 250 248 265 274 271 275 273 285 278 273 270 272 276 282 273 274 278 278
204 208 224 213 155 130 183 198 201 209 217 220 215 213 211 205 215 224 229 229 230 230 237 245 259 263 269 273 280 283 283 291 293 287 281 268 261 262 265 269 267 271 275
223 215 209 207 205 104 97 140 179 189 187 180 185 192 198 206 220 210 222 233 238 243 249 257 261 268 269 271 283 285 285 272 257 259 262 260 263 269 273 273 268 270 276
228 230 221 218 226 201 100 110 108 168 188 184 189 192 205 206 208 213 221 225 235 245 252 257 264 261 258 269 270 259 248 251 256 259 263 265 267 275 285 283 276 274 273
225 237 233 218 226 215 99 96 91 83 80 106 183 201 205 214 226 227 222 230 237 235 238 243 250 249 263 267 257 266 272 265 272 278 278 278 281 293 289 284 283 284 283
243 238 224 213 206 202 156 135 115 94 75 74 63 50 13 284 262 265 271 269 267 264 261 266 266 270 276 284 277 282 285 282 283 283 283 285 287 289 291 292 292 291 289
213 217 218 220 211 208 182 176 176 165 154 178 122 169 146 153 142 101 91 337 257 270 272 276 278 279 282 280 278 279 282 283 282 282 283 285 284 283 286 289 298 308 304
Height
10653 10659 10664 10672 10680 10681 10682 10683 10686 10688 10688 10687 10685 10682 10679 10675 10670 10663 10658 10652 10648 10643 10639 10635 10632 10630 10628 10627 10625 10622 10619 10616 10613 10612 10614 10617 10622 10627 10629 10631 10634 10638 10641
10636 10642 10651 10658 10664 10667 10668 10672 10674 10676 10675 10674 10672 10671 10666 10664 10660 10654 10648 10643 10639 10634 10630 10627 10625 10624 10622 10621 10619 10617 10614 10613 10612 10611 10611 10615 10620 10624 10625 10630 10634 10637 10639
10620 10627 10634 10643 10647 10651 10656 10661 10663 10663 10663 10662 10661 10659 10656 10653 10649 10642 10637 10633 10628 10624 10620 10618 10619 10618 10617 10615 10613 10611 10610 10609 10610 10610 10611 10614 10617 10622 10625 10629 10632 10636 10636
10608 10614 10620 10625 10632 10639 10644 10648 10652 10652 10651 10651 10649 10648 10647 10643 10638 10632 10627 10623 10619 10616 10613 10611 10612 10610 10610 10609 10608 10606 10605 10604 10607 10608 10610 10612 10616 10621 10625 10628 10631 10635 10636
10600 10606 10610 10616 10622 10627 10632 10638 10641 10643 10642 10641 10640 10640 10638 10634 10630 10625 10620 10615 10612 10610 10608 10607 10605 10603 10602 10602 10602 10601 10600 10601 10603 10605 10609 10612 10615 10620 10622 10628 10631 10634 10634
10596 10602 10604 10608 10613 10619 10624 10629 10633 10633 10632 10633 10633 10630 10629 10625 10621 10618 10613 10610 10608 10606 10603 10601 10598 10597 10595 10595 10595 10597 10596 10598 10600 10603 10606 10610 10614 10617 10621 10625 10628 10631 10631
10596 10598 10602 10604 10610 10615 10617 10621 10624 10623 10625 10626 10625 10624 10621 10618 10615 10612 10610 10607 10604 10600 10596 10594 10592 10591 10590 10589 10590 10591 10592 10595 10598 10601 10604 10607 10611 10615 10619 10621 10624 10627 10628
10594 10598 10600 10601 10604 10607 10610 10614 10617 10618 10619 10618 10617 10616 10614 10612 10610 10609 10606 10603 10599 10595 10592 10589 10586 10584 10583 10582 10583 10585 10589 10592 10594 10598 10602 10605 10608 10611 10613 10616 10620 10623 10626
10589 10591 10593 10596 10600 10602 10605 10607 10609 10611 10612 10610 10611 10610 10608 10608 10607 10607 10605 10601 10597 10591 10587 10583 10579 10575 10574 10575 10576 10580 10585 10589 10592 10595 10599 10602 10604 10607 10610 10613 10616 10619 10624
10585 10586 10588 10592 10595 10597 10601 10604 10604 10605 10605 10604 10605 10604 10604 10606 10606 10605 10603 10600 10595 10589 10585 10578 10572 10569 10567 10569 10572 10577 10582 10586 10590 10593 10596 10597 10600 10602 10605 10608 10611 10615 10620
10580 10581 10585 10589 10591 10593 10596 10597 10599 10600 10599 10598 10599 10599 10601 10603 10604 10604 10603 10600 10595 10589 10584 10577 10571 10567 10566 10568 10571 10576 10581 10585 10589 10592 10594 10596 10598 10600 10603 10606 10611 10617 10621
10575 10579 10583 10585 10587 10589 10591 10593 10594 10593 10592 10592 10593 10595 10598 10601 10603 10603 10603 10602 10597 10591 10586 10580 10576 10572 10570 10571 10575 10578 10582 10586 10589 10592 10594 10596 10599 10601 10605 10610 10616 10620 10625
10576 10577 10579 10583 10585 10585 10587 10587 10587 10587 10586 10587 10589 10592 10596 10600 10602 10603 10604 10603 10600 10597 10592 10588 10584 10581 10580 10581 10583 10585 10589 10591 10593 10595 10598 10600 10604 10607 10610 10613 10619 10625 10628
10570 10572 10577 10580 10581 10582 10582 10581 10582 10583 10583 10583 10585 10589 10594 10599 10601 10604 10604 10604 10603 10602 10599 10596 10594 10592 10591 10592 10593 10594 10596 10597 10599 10601 10602 10605 10609 10612 10616 10619 10623 10627 10630
10565 10570 10573 10576 10578 10578 10578 10579 10581 10581 10581 10582 10585 10589 10594 10598 10601 10603 10605 10606 10605 10605 10605 10604 10603 10602 10601 10601 10601 10602 10604 10605 10606 10608 10610 10612 10615 10617 10620 10623 10626 10629 10632
10565 10569 10572 10573 10574 10575 10577 10578 10580 10582 10583 10583 10586 10589 10593 10597 10600 10603 10605 10606 10607 10608 10609 10610 10610 10609 10609 10609 10610 10611 10612 10614 10615 10616 10618 10620 10623 10624 10626 10628 10630 10633 10635
10564 10568 10568 10570 10571 10573 10574 10576 10579 10580 10581 10582 10585 10588 10593 10597 10600 10603 10605 10607 10608 10610 10611 10612 10613 10614 10615 10616 10617 10617 10619 10620 10621 10622 10623 10624 10626 10627 10629 10631 10632 10633 10634
10562 10565 10567 10570 10570 10571 10570 10572 10575 10577 10578 10581 10584 10587 10591 10595 10598 10601 10603 10605 10608 10610 10612 10613 10615 10616 10617 10618 10619 10620 10622 10622 10623 10624 10625 10627 10627 10628 10628 10629 10629 10630 10631
10561 10564 10566 10569 10569 10568 10567 10568 10570 10572 10574 10578 10581 10584 10588 10592 10595 10598 10601 10603 10606 10609 10611 10613 10614 10616 10617 10618 10618 10620 10621 10622 10622 10622 10623 10623 10624 10625 10625 10626 10625 10626 10626
10562 10565 10568 10569 10568 10565 10565 10565 10566 10568 10571 10574 10578 10581 10584 10588 10590 10593 10597 10600 10603 10605 10608 10610 10612 10613 10614 10615 10616 10617 10617 10618 10618 10618 10618 10618 10618 10618 10618 10618 10619 10618 10618
10563 10565 10566 10567 10566 10566 10565 10563 10563 10565 10568 10571 10574 10577 10580 10583 10585 10588 10591 10594 10598 10601 10603 10605 10607 10609 10611 10612 10612 10612 10612 10612 10612 10611 10610 10610 10611 10611 10611 10611 10610 10610 10609
10560 10562 10563 10564 10564 10564 10564 10562 10562 10563 10564 10567 10570 10573 10575 10578 10582 10584 10588 10591 10595 10598 10600 10601 10603 10604 10605 10605 10605 10605 10605 10605 10605 10604 10604 10605 10605 10605 10605 10605 10604 10603 10602
10557 10559 10561 10562 10563 10563 10563 10562 10561 10563 10563 10566 10569 10571 10575 10578 10580 10583 10585 10588 10591 10593 10594 10595 10596 10597 10597 10597 10598 10597 10598 10598 10598 10599 10600 10600 10600 10600 10599 10598 10596 10594 10593
10554 10557 10560 10562 10562 10561 10562 10562 10563 10564 10565 10567 10568 10570 10573 10576 10578 10580 10582 10584 10586 10587 10587 10589 10590 10591 10592 10593 10593 10594 10594 10594 10593 10593 10593 10593 10592 10592 10589 10587 10587 10585 10584
10551 10554 10558 10559 10560 10562 10562 10564 10565 10566 10567 10569 10570 10571 10572 10574 10576 10577 10578 10580 10581 10583 10584 10585 10586 10587 10587 10588 10588 10589 10588 10587 10587 10587 10586 10585 10583 10582 10580 10579 10578 10578 10576
10549 10552 10555 10556 10556 10560 10561 10563 10565 10566 10568 10570 10571 10572 10573 10574 10575 10577 10577 10578 10578 10579 10580 10580 10580 10581 10581 10581 10581 10580 10580 10580 10579 10579 10578 10577 10577 10577 10576 10575 10573 10571 10569